sat.trackr.live / text

‹ back to catalog

KUIPER-00248

NORAD 67153 · 2025-301W

PAYLOAD ACTIVE UNKNOWN

§ Identity

Operator
Country
US
Launch date
2025-12-16
Launch site
AFETR
Launch vehicle
Mass (kg)
RCS (m²)

External: N2YO · Heavens-Above · Gunter

§ Orbital elements

Epoch: 2026-05-25T04:00:03.998880Z

Period
97.22 min
Inclination
51.8997°
Eccentricity
0.0001851
Mean motion
14.81222884 rev/d
Perigee alt
624.2 km
Apogee alt
626.8 km
Semi-major
7,003.6 km
B*
9.3246e-6
RAAN
61.7920°
Arg perigee
35.9517°
Mean anomaly
188.5251°
Rev number
547

§ Raw data

KUIPER-002481 67153U 25301W   26145.16671295 -.00000151  00000+0  93246-5 0  99942 67153  51.8997  61.7920 0001851  35.9517 188.5251 14.81222884  5479

JSON: /api/v1/satellites/67153 · /tle

For live sub-satellite position, see the globe view (requires WebGL).

§ Visibility from observer

Set your observer location to see the next 7 days of passes ≥ 10°. The values pass through the URL so the page stays shareable.

No JS? Fill the form by hand. The geolocation button needs JavaScript.